Tacoma Narrows, WA
on Saturday, February 16, 2013

Saturday
Previous Day Next Day
Daily Summary
 ActualAverageRecord
Temperature
Mean Temperature °F °F  
Max Temperature 51°F 47°F 57°F (1997)
Min Temperature 37°F 36°F 30°F (2006)
Degree Days
Heating Degree Days 21    
Moisture
Dew Point 38°F   
Average Humidity 82    
Maximum Humidity 100    
Minimum Humidity 57    
Precipitation
Precipitation 0.01 in in in ()
Wind
Wind Speed 7 mph   
Max Wind Speed 20 mph   
Max Gust Speed 28 mph   
Visibility 7 miles   
Events Fog   
Averages and records for this station are not official NWS values.
Key: T is trace of precipitation, MM is missing value
Source: NWS Daily Summary
Seasonal Weather Averages
Time(PST)TemperatureDew PointHumidity Pressure Visibility Wind DirectionWind SpeedGust SpeedPrecipitationEvents Conditions
12:53 AM 39.9°F 37.0°F 89% 30.19 in 8.0 miles Calm Calm - N/A   Clear
1:36 AM 37.4°F 37.4°F 100% 30.18 in 2.0 miles South 4.6 mph - N/A   Scattered Clouds
1:40 AM 37.4°F 35.6°F 93% 30.18 in 1.0 miles South 4.6 mph - N/A   Mist
1:53 AM 37.9°F 37.0°F 97% 30.19 in 0.5 miles SSW 4.6 mph - N/A Fog Fog
1:58 AM 37.4°F 35.6°F 93% 30.18 in 1.5 miles SSW 4.6 mph - N/A   Scattered Clouds
2:00 AM 37.4°F 35.6°F 93% 30.18 in 3.0 miles SSW 4.6 mph - N/A   Scattered Clouds
2:27 AM 42.8°F 39.2°F 87% 30.17 in 1.8 miles South 3.5 mph - 0.01 in   Overcast
2:31 AM 42.8°F 39.2°F 87% 30.17 in 0.8 miles Calm Calm - 0.01 in   Overcast
2:45 AM 42.8°F 39.2°F 87% 30.17 in 0.8 miles SSE 5.8 mph - 0.01 in   Mist
2:53 AM 42.1°F 41.0°F 96% 30.17 in 0.5 miles SSE 4.6 mph - 0.01 in Fog Fog
3:06 AM 42.8°F 41.0°F 93% 30.17 in 2.0 miles SE 3.5 mph - N/A   Overcast
3:14 AM 42.8°F 41.0°F 93% 30.17 in 5.0 miles Calm Calm - N/A   Overcast
3:22 AM 42.8°F 41.0°F 93% 30.17 in 7.0 miles Calm Calm - N/A   Overcast
3:35 AM 42.8°F 41.0°F 93% 30.17 in 10.0 miles Calm Calm - N/A   Overcast
3:53 AM 43.0°F 41.0°F 93% 30.18 in 10.0 miles WSW 6.9 mph - N/A   Overcast
4:26 AM 44.6°F 41.0°F 87% 30.16 in 10.0 miles South 10.4 mph 23.0 mph N/A   Overcast
4:53 AM 44.1°F 41.0°F 89% 30.17 in 10.0 miles South 11.5 mph - N/A   Overcast
5:53 AM 46.0°F 41.0°F 83% 30.17 in 10.0 miles SSW 15.0 mph 21.9 mph N/A   Overcast
6:53 AM 46.0°F 41.0°F 83% 30.16 in 10.0 miles South 15.0 mph 25.3 mph N/A   Mostly Cloudy
7:53 AM 46.0°F 41.0°F 83% 30.18 in 10.0 miles SSW 12.7 mph - N/A   Overcast
8:44 AM 44.6°F 41.0°F 87% 30.19 in 8.0 miles South 15.0 mph 21.9 mph N/A   Overcast
8:53 AM 45.0°F 42.1°F 90% 30.20 in 3.0 miles SSW 15.0 mph 23.0 mph N/A   Overcast
9:31 AM 46.4°F 42.8°F 87% 30.19 in 10.0 miles South 16.1 mph 21.9 mph 0.00 in   Mostly Cloudy
9:53 AM 46.0°F 41.0°F 83% 30.19 in 10.0 miles SSW 12.7 mph 20.7 mph 0.00 in   Mostly Cloudy
10:53 AM 48.9°F 41.0°F 74% 30.19 in 10.0 miles SSW 11.5 mph 21.9 mph N/A   Mostly Cloudy
11:53 AM 50.0°F 39.9°F 68% 30.18 in 10.0 miles SSW 12.7 mph 20.7 mph N/A   Mostly Cloudy
12:53 PM 50.0°F 35.1°F 57% 30.17 in 10.0 miles SW 15.0 mph 24.2 mph N/A   Mostly Cloudy
1:53 PM 51.1°F 37.9°F 61% 30.15 in 10.0 miles SW 13.8 mph 27.6 mph N/A   Mostly Cloudy
2:53 PM 48.9°F 37.0°F 64% 30.15 in 10.0 miles SW 19.6 mph 27.6 mph N/A   Scattered Clouds
3:53 PM 48.0°F 37.0°F 66% 30.15 in 10.0 miles SSW 17.3 mph 25.3 mph N/A   Scattered Clouds
4:53 PM 46.9°F 36.0°F 66% 30.15 in 10.0 miles SW 12.7 mph 18.4 mph N/A   Scattered Clouds
5:53 PM 44.1°F 36.0°F 73% 30.16 in 10.0 miles South 10.4 mph 16.1 mph N/A   Scattered Clouds
6:53 PM 44.1°F 36.0°F 73% 30.17 in 10.0 miles SW 8.1 mph 16.1 mph N/A   Scattered Clouds
7:53 PM 43.0°F 35.1°F 74% 30.17 in 10.0 miles SW 6.9 mph 16.1 mph N/A   Mostly Cloudy
8:07 PM 42.8°F 35.6°F 76% 30.17 in 10.0 miles SSW 8.1 mph - N/A   Overcast
8:53 PM 42.1°F 35.1°F 76% 30.19 in 10.0 miles SSW 11.5 mph - N/A   Mostly Cloudy
9:04 PM 42.8°F 35.6°F 76% 30.18 in 10.0 miles SSW 9.2 mph - N/A   Mostly Cloudy
9:53 PM 42.1°F 34.0°F 73% 30.20 in 10.0 miles SSW 6.9 mph 16.1 mph N/A   Overcast
10:53 PM 41.0°F 34.0°F 76% 30.20 in 10.0 miles SSW 9.2 mph - N/A   Scattered Clouds
11:53 PM 39.9°F 34.0°F 79% 30.20 in 10.0 miles SSW 9.2 mph - N/A   Mostly Cloudy
Moon Phase
Feb. 16 Feb. 17 Feb. 25 Mar. 04 Mar. 11
Sunrise:07:13 AM (PST) Moon Rise:09:59 AM (PST)2/16
Sunset:05:36 PM (PST) Moon Set:12:09 AM (PST)2/16

Copyright © 2014 The Weather Underground, Inc.